Wind_Speed
18 17 16 15 15 13 12 13 15 17 17 16 14 14 15 16 12 3 1 5 3 8 11 11 6 8 5 4 2 2 4 3 5 7 5 8 5 7 6 8 2 3 5 13 24
21 20 18 16 15 14 13 13 15 17 17 15 13 12 14 15 6 2 9 13 11 11 9 8 4 5 3 2 2 4 3 2 4 6 8 10 9 6 6 6 4 10 16 21 22
22 21 19 16 15 14 13 12 15 17 15 13 11 10 11 11 1 2 17 19 21 13 5 5 5 1 4 1 4 3 2 5 2 7 13 11 6 2 13 2 5 18 17 17 17
23 23 20 18 16 15 13 12 14 15 13 12 9 8 10 3 3 7 24 16 14 15 7 2 0 3 3 3 3 3 4 3 1 9 10 12 8 5 4 2 14 19 19 17 13
25 24 22 19 17 15 12 12 12 13 12 10 8 7 3 1 2 15 22 17 16 16 6 3 4 2 3 4 1 6 4 5 8 9 12 11 6 6 1 13 15 17 17 14 11
26 25 24 22 19 16 13 12 11 12 10 8 6 5 2 3 2 21 23 22 16 14 6 3 3 2 3 3 4 6 6 8 7 9 7 8 5 5 7 14 16 16 14 11 13
28 27 26 24 21 17 14 12 11 10 7 6 4 2 1 3 2 18 19 18 14 16 5 14 6 1 5 1 7 4 2 3 4 4 3 9 2 3 14 16 17 14 12 11 13
29 28 28 26 23 20 16 13 11 6 2 3 2 1 4 5 4 17 15 6 10 14 15 7 11 3 2 3 2 4 4 2 2 4 5 4 4 6 15 17 15 14 11 10 11
31 30 30 29 26 23 17 13 2 3 2 1 2 2 3 5 2 6 11 5 7 9 10 7 4 3 3 5 3 3 2 2 3 5 5 2 1 7 11 14 13 12 12 12 11
32 32 31 30 27 25 14 5 5 4 4 3 1 3 3 2 3 4 5 8 0 5 2 4 4 3 3 3 5 4 2 2 5 6 4 5 3 11 11 11 13 12 11 10 8
33 33 32 29 28 21 7 2 4 4 1 4 3 2 4 5 5 5 3 6 2 5 3 3 4 4 7 6 5 4 3 3 4 7 4 6 5 12 13 9 10 9 9 9 11
34 34 32 27 25 10 7 6 8 2 5 3 5 6 9 2 3 2 5 3 3 2 2 5 3 3 6 4 6 4 3 5 2 5 4 5 6 13 15 15 13 13 12 10 5
35 36 31 26 14 6 5 6 1 3 3 6 5 4 4 8 5 6 6 3 3 1 3 4 4 0 4 4 5 2 6 4 3 5 3 5 2 9 11 6 7 10 7 6 9
35 36 30 25 2 10 1 6 16 9 5 6 4 6 4 4 2 4 5 5 2 4 5 4 4 2 5 2 3 3 2 5 8 4 3 2 4 3 10 15 14 9 9 7 7
37 35 30 20 10 2 1 14 5 3 2 3 3 1 2 8 3 2 3 4 5 3 4 5 5 3 4 4 5 3 4 4 4 5 4 4 3 5 3 11 15 14 12 6 6
38 35 29 7 5 6 6 7 3 6 5 1 4 5 5 2 2 3 3 6 2 4 2 3 4 1 1 3 4 5 6 8 5 3 2 3 4 3 3 5 7 6 8 8 8
38 34 16 6 2 0 9 3 5 4 4 2 3 4 3 4 1 2 3 3 5 4 2 4 4 4 1 3 4 7 6 3 3 3 5 4 4 1 9 9 12 11 11 10 7
39 17 7 4 4 6 1 5 4 3 5 4 3 3 7 5 3 2 4 2 1 4 4 4 3 2 4 3 5 3 6 6 5 4 3 4 4 6 5 8 9 10 11 10 8
33 9 4 6 9 2 5 3 7 5 4 6 3 3 2 2 5 3 6 6 6 7 5 4 3 3 4 2 3 3 2 4 7 3 3 2 2 3 10 10 9 10 10 6 3
15 7 9 7 10 3 5 5 3 4 4 4 1 1 5 4 5 5 6 3 5 2 2 6 4 2 2 2 6 3 5 3 3 4 2 3 3 4 8 8 8 8 6 5 7
5 4 10 10 4 5 4 5 5 6 3 1 1 4 3 3 6 2 7 1 1 3 5 4 3 3 4 6 1 4 3 7 6 3 5 3 2 5 2 3 7 7 7 7 9
4 3 6 3 4 1 3 5 4 5 1 5 3 7 5 4 3 5 6 2 4 5 4 1 5 4 2 2 2 2 3 4 5 3 1 3 2 3 4 5 8 10 9 9 11
2 2 3 1 3 3 4 4 5 5 7 4 6 7 3 5 3 3 3 2 1 2 7 6 3 4 6 6 4 5 3 4 4 3 2 5 4 2 5 7 8 11 10 10 11
2 3 4 4 0 2 3 5 4 4 7 6 4 5 4 2 2 6 4 5 3 4 10 9 4 5 6 5 3 2 4 3 4 3 6 4 8 4 4 7 6 8 8 8 8
4 1 2 3 3 3 1 2 4 4 3 5 4 8 7 4 3 2 3 4 4 3 5 5 4 4 4 3 2 2 2 5 2 4 2 7 5 6 5 6 4 5 8 11 12
2 3 4 2 3 2 3 3 3 6 2 5 6 9 7 9 9 13 8 3 4 6 4 4 2 3 3 5 4 3 7 5 5 5 7 14 6 4 5 5 5 6 6 6 6
4 1 3 4 5 2 3 5 6 5 4 5 4 3 4 1 7 6 4 5 6 5 3 4 6 3 2 4 4 3 5 2 3 4 8 10 5 5 4 5 4 4 5 5 6
Wind_Direction
359 355 352 346 345 346 346 346 342 340 335 333 332 325 326 331 342 32 47 124 140 176 159 128 88 124 112 86 80 93 68 166 160 162 147 133 118 154 102 130 94 62 119 133 142
4 357 351 346 343 344 343 345 342 339 335 333 330 319 322 334 339 100 137 133 120 163 171 189 111 146 59 38 35 68 84 203 181 158 156 143 126 143 117 149 58 83 101 128 143
3 358 353 349 344 343 341 342 343 341 337 337 330 318 323 335 332 134 156 138 176 176 108 120 108 80 71 21 16 42 64 352 354 126 136 137 113 76 136 214 176 143 143 150 148
3 360 356 354 346 342 338 338 343 340 336 339 332 321 327 356 106 167 167 175 169 179 144 139 357 111 80 58 50 55 318 252 298 129 133 146 121 111 141 228 139 142 149 154 162
4 1 359 354 348 343 338 334 338 337 330 337 336 334 333 54 245 152 168 172 170 173 172 213 34 58 85 74 89 18 335 335 97 124 131 132 132 141 56 119 127 138 154 161 159
3 0 359 356 350 343 338 330 328 330 324 328 335 343 14 89 130 159 169 175 186 178 170 239 222 169 82 79 67 187 240 315 66 142 134 120 132 105 144 134 140 154 168 170 167
2 359 358 354 350 345 337 326 319 319 310 317 329 357 30 158 93 166 174 185 195 194 168 209 241 104 122 100 144 160 83 151 59 94 99 109 61 110 149 148 153 170 178 172 178
0 357 355 352 348 345 336 325 313 302 275 321 332 9 235 334 114 166 184 189 207 226 238 236 196 171 167 152 67 111 73 117 275 104 162 92 238 135 152 151 168 174 186 178 193
358 355 352 350 346 342 341 330 11 129 140 9 25 12 281 321 246 193 193 183 192 240 246 245 182 170 113 125 34 8 186 178 154 190 138 103 191 156 164 159 171 183 187 188 195
356 352 349 348 344 341 349 47 105 97 120 107 9 23 326 311 255 216 217 206 100 330 87 64 45 74 56 104 208 210 201 197 187 201 155 160 188 162 168 176 176 186 197 200 186
355 350 347 347 341 344 5 130 16 5 67 187 179 245 273 296 275 214 181 119 118 52 53 24 65 212 222 209 201 168 175 217 220 166 131 181 152 180 181 176 185 189 187 196 209
354 350 347 347 342 0 38 92 129 246 321 231 245 273 266 260 9 300 157 112 82 114 16 16 242 220 268 219 206 255 177 247 313 139 129 168 200 185 190 198 190 188 197 199 166
352 349 345 346 346 32 11 112 287 319 106 297 207 210 211 146 194 252 131 110 124 136 173 177 226 279 230 81 117 107 162 166 162 109 57 110 313 188 207 190 202 205 194 185 185
350 347 344 343 46 346 18 333 330 161 59 280 235 263 136 130 266 210 180 130 77 192 174 226 276 144 126 78 127 104 139 110 125 98 183 69 263 255 206 202 200 202 191 197 188
345 343 338 333 302 257 158 337 102 74 12 243 206 181 9 145 186 216 176 64 167 189 97 256 349 40 131 172 166 179 66 63 96 96 93 358 80 306 156 208 211 198 201 173 170
341 338 329 317 275 269 304 348 118 43 255 321 180 161 112 345 177 139 121 57 105 120 13 256 295 3 114 69 67 137 63 40 58 88 48 338 138 304 347 299 260 194 177 146 136
339 333 306 222 225 179 332 80 49 146 318 322 229 147 128 157 167 120 112 83 154 101 322 354 318 310 118 83 37 70 60 359 355 13 205 307 72 45 318 318 242 177 146 139 135
339 339 326 223 185 260 23 57 172 240 269 313 15 29 168 156 200 112 91 138 62 95 99 138 336 357 349 104 162 63 143 151 209 190 217 356 4 311 346 34 50 103 116 118 99
343 353 15 357 219 172 81 94 207 206 294 329 328 132 222 282 167 118 171 194 192 182 135 139 266 313 54 61 99 168 83 166 106 4 74 251 118 91 25 43 52 76 89 98 178
341 346 10 359 138 108 80 201 209 220 293 23 305 129 175 202 165 129 173 194 180 179 138 199 100 0 335 77 35 114 145 68 16 131 133 21 66 344 356 12 38 42 55 40 47
4 51 4 119 3 51 145 223 253 234 272 347 304 322 241 208 146 134 198 229 168 56 89 128 98 270 46 22 230 1 38 53 109 102 144 130 262 1 41 31 77 76 74 68 63
5 53 359 330 51 17 154 196 222 266 78 264 193 209 237 150 123 147 189 203 331 150 90 131 120 81 125 321 270 99 108 127 119 207 72 125 265 357 43 22 75 66 70 66 67
51 264 3 188 88 329 283 265 229 231 232 227 225 192 177 180 99 155 150 27 204 118 160 183 24 72 356 352 5 43 37 109 105 100 189 128 222 98 55 51 45 78 64 58 52
44 18 333 48 46 124 325 264 263 255 244 197 245 135 125 122 82 181 135 34 33 70 68 86 85 143 180 183 173 8 357 85 108 109 165 190 150 150 90 78 47 60 57 55 45
35 336 184 335 325 334 333 281 307 314 251 196 246 192 156 134 89 102 112 108 40 15 47 89 97 86 70 26 122 91 349 338 84 141 138 169 122 170 154 122 68 60 42 33 21
61 30 355 273 284 314 17 351 292 303 219 284 243 144 156 167 177 180 146 145 156 33 68 20 141 122 56 6 24 74 12 50 60 110 69 117 108 149 114 90 72 60 51 37 18
6 40 103 315 341 44 324 302 281 325 288 230 236 119 76 295 110 87 66 88 106 107 86 75 128 97 192 349 34 8 341 360 65 33 144 149 185 142 141 137 144 101 58 29 7
Height
791 789 787 784 783 780 778 776 773 771 769 767 765 762 759 759 758 759 759 761 759 758 761 760 762 762 763 768 769 772 795 803 793 794 791 781 791 788 787 795 794 797 803 808 815
790 788 786 783 781 779 777 775 773 770 767 765 764 760 758 759 757 759 759 760 757 755 761 759 763 762 768 770 772 781 797 787 773 775 781 782 786 790 796 799 805 806 808 813 817
790 787 785 782 780 778 776 774 772 769 766 764 762 759 758 758 758 759 757 756 753 758 761 762 763 763 773 771 777 782 790 777 768 766 771 783 788 786 798 806 802 807 811 815 819
790 787 784 781 779 776 774 772 771 768 765 763 762 759 757 758 777 756 756 757 758 760 763 762 761 770 778 783 779 785 776 772 766 766 775 785 785 795 795 796 794 802 808 815 820
790 787 783 780 777 775 773 771 769 767 765 763 761 759 758 760 758 756 757 758 759 761 764 760 759 764 777 780 780 783 776 767 763 769 775 780 791 795 799 795 800 807 812 816 822
790 786 783 779 775 773 771 769 767 765 764 762 761 759 759 765 755 755 757 758 759 762 765 760 762 759 768 778 783 779 778 774 770 775 779 791 794 793 802 799 804 808 813 817 820
790 786 782 777 774 770 769 767 765 764 762 762 761 759 760 757 755 756 757 757 759 760 763 762 758 762 767 779 778 777 786 778 777 780 788 785 802 803 798 801 808 812 813 818 822
789 785 780 776 772 769 766 763 762 761 761 762 761 761 761 752 753 756 757 758 758 759 759 761 763 765 768 769 779 788 793 806 784 781 787 790 818 801 798 804 812 813 815 819 821
788 783 778 774 770 766 763 760 759 760 761 761 762 762 760 752 752 753 755 756 757 757 758 759 762 767 769 787 801 798 814 807 798 783 786 794 813 800 799 805 812 813 815 816 819
787 782 777 772 768 763 761 759 760 761 761 762 763 766 753 754 750 750 752 754 755 755 758 760 770 783 789 798 825 811 809 803 805 793 789 801 805 801 800 805 809 812 813 815 817
786 780 775 770 765 762 759 760 765 767 763 760 761 761 754 751 749 749 750 753 755 760 779 773 789 800 789 787 783 784 796 799 791 783 793 800 805 803 799 804 810 812 813 815 814
784 778 773 769 764 761 759 761 766 770 773 756 757 756 751 750 755 749 750 759 763 779 775 786 793 774 771 777 783 788 800 801 785 784 791 803 805 800 797 797 801 807 809 811 814
783 777 771 767 763 763 763 764 765 765 776 761 753 752 748 749 757 755 750 757 769 779 782 792 777 771 771 778 787 788 799 794 796 793 794 803 813 806 798 799 802 801 803 806 808
782 775 769 765 766 764 763 763 761 761 799 776 759 749 747 747 759 746 747 755 769 780 784 785 769 772 775 781 785 793 778 786 798 808 829 802 843 816 804 803 801 804 804 805 805
779 773 769 766 765 765 764 761 760 762 826 763 755 741 744 756 753 750 747 753 773 775 779 785 776 777 782 781 782 789 781 789 796 818 818 819 836 825 808 812 801 798 799 802 804
775 770 764 763 763 761 761 761 762 806 819 767 751 756 758 755 754 751 751 751 760 773 776 779 768 770 771 774 774 781 793 810 824 831 846 835 842 843 832 822 807 799 800 804 807
769 763 758 761 760 759 759 761 808 823 774 770 764 758 763 767 763 759 766 774 789 802 798 788 781 772 766 779 780 792 816 850 848 854 855 842 844 827 819 806 796 796 801 805 807
763 756 755 757 757 759 760 781 810 794 791 765 764 767 772 767 766 768 777 789 778 789 814 814 814 779 770 778 793 803 812 847 853 865 853 835 853 840 811 803 799 797 801 804 811
760 756 755 756 755 758 768 806 804 794 776 775 770 774 775 768 768 771 780 790 781 783 799 810 803 777 772 773 781 802 820 816 854 858 855 844 830 818 816 813 810 809 807 811 812
760 758 758 756 757 759 782 798 789 780 771 772 780 772 786 775 777 780 785 775 776 774 774 794 809 786 779 778 788 790 807 828 846 857 862 850 845 846 831 832 823 821 820 819 816
762 765 763 761 761 770 795 796 783 770 767 772 777 778 775 773 780 783 788 772 767 778 777 789 802 799 792 807 808 810 816 838 847 855 861 872 858 839 840 833 831 829 827 826 827
768 779 766 765 780 800 792 785 773 768 762 768 768 774 775 775 780 782 782 776 770 769 785 790 812 825 810 799 801 801 813 828 843 847 863 859 863 841 838 835 830 831 831 832 832
783 782 767 766 794 794 785 777 769 768 769 767 768 767 768 774 783 778 776 770 768 770 782 785 818 837 827 816 804 812 811 829 839 844 852 857 865 841 841 840 838 837 837 836 836
785 787 778 776 787 784 784 779 774 758 761 759 761 760 769 775 780 784 779 772 770 775 775 782 826 821 837 825 820 815 815 818 828 844 855 855 853 847 846 844 844 842 841 841 841
789 796 795 796 790 790 787 780 776 773 756 755 760 758 766 779 782 782 776 777 775 776 784 792 822 819 820 816 812 819 819 815 814 831 831 845 850 850 847 846 845 844 842 842 843
797 799 795 796 794 786 787 783 781 772 764 762 765 750 758 771 764 776 775 777 777 782 791 802 825 816 823 820 815 825 825 823 827 835 840 840 850 844 847 847 849 849 849 851 851
796 795 797 796 796 790 790 783 776 773 757 756 753 749 756 758 753 764 768 771 775 783 800 809 825 832 832 830 821 835 835 831 833 832 832 842 844 844 848 849 851 852 852 853 853